Date String (YYYY-MM-DD hh:mm:ss) UTC,Instrument flags,absolute air pressure of the measurement (hPa),sample flow rate (lpm),inlet stack bypass flow (lpm),air temperature of the measurement (°C),ambient temperature measured by the external sensor (°C),aerosol sample conditioner tube jacket temperature (°C),OPC LED temperature (°C),internal box temperature (°C),relative humidity of the measurement (%),span deviation,mass concentration of particles derived from Lorenz-Mie calculation of OPC scattering (μg/m³),mass concentration of particles derived from Lorenz-Mie calculation of OPC scattering (μg/m³),mass concentration of particles derived from Lorenz-Mie calculation of OPC scattering (μg/m³)
DateTimeUTC,F1_M11,P_M11,Q1_M11,Q2_M11,T1_M11,T2_M11,T3_M11,T4_M11,T5_M11,U1_M11,ZSPAN_M11,X0_M11,X2_M11,X1_M11
2024-04-08 10:00:00,SystemResetWarning,0823.4,5.00,000.00,018.3,017.4,000.0,026.9,020.0,011.7,0000.0,0003.10,0001.88,0001.29
2024-04-08 10:01:00,SystemResetWarning,0823.4,5.01,000.00,018.3,017.5,000.0,026.9,020.0,011.9,0000.0,0003.18,0001.90,0001.27
2024-04-08 10:02:00,SystemResetWarning,0823.5,5.01,000.00,018.3,017.5,000.0,026.9,020.0,012.0,0000.0,0003.26,0001.93,0001.27
2024-04-08 10:03:00,SystemResetWarning,0823.5,5.00,000.00,018.3,017.5,000.0,026.9,020.0,012.1,0000.0,0003.26,0001.94,0001.26
2024-04-08 10:04:00,SystemResetWarning,0823.5,5.00,000.00,018.3,017.5,000.0,026.9,020.0,012.2,0000.0,0003.44,0001.98,0001.25
2024-04-08 10:05:00,SystemResetWarning,0823.5,5.00,000.00,018.3,017.5,000.0,026.9,020.0,012.1,0000.0,0003.46,0001.94,0001.22
2024-04-08 10:06:00,SystemResetWarning,0823.5,5.00,000.00,018.3,017.5,000.0,026.9,020.0,012.0,0000.0,0003.43,0001.92,0001.21
2024-04-08 10:07:00,SystemResetWarning,0823.5,5.00,000.00,018.3,017.5,000.0,026.9,020.0,012.0,0000.0,0004.05,0001.90,0001.21
2024-04-08 10:08:00,SystemResetWarning,0823.5,5.00,000.00,018.2,017.5,000.0,026.9,020.0,012.0,0000.0,0005.16,0001.87,0001.19
2024-04-08 10:09:00,SystemResetWarning,0823.5,5.00,000.00,018.2,017.5,000.0,026.9,020.0,012.1,0000.0,0005.37,0001.91,0001.20
2024-04-08 10:10:00,SystemResetWarning,0823.5,5.00,000.00,018.2,017.5,000.0,026.9,020.0,012.3,0000.0,0005.42,0001.93,0001.20
2024-04-08 10:11:00,SystemResetWarning,0823.5,5.00,000.00,018.2,017.5,000.0,026.9,020.0,012.7,0000.0,0005.46,0001.93,0001.20
2024-04-08 10:12:00,SystemResetWarning,0823.5,5.00,000.00,018.2,017.5,000.0,026.9,020.0,012.8,0000.0,0005.33,0001.90,0001.19
2024-04-08 10:13:00,SystemResetWarning,0823.5,5.00,000.00,018.2,017.5,000.0,026.9,020.0,012.7,0000.0,0005.29,0001.89,0001.18
2024-04-08 10:14:00,SystemResetWarning,0823.5,5.00,000.00,018.2,017.5,000.0,026.9,020.0,012.7,0000.0,0005.33,0001.88,0001.18
2024-04-08 10:15:00,SystemResetWarning,0823.6,5.00,000.00,018.3,018.0,000.0,027.0,020.3,012.8,0000.0,0005.36,0001.84,0001.18
2024-04-08 10:16:00,SystemResetWarning,0823.7,4.99,000.00,018.6,018.8,000.0,027.1,020.8,012.8,0000.0,0005.39,0001.87,0001.20
2024-04-08 10:17:00,SystemResetWarning,0823.6,4.99,000.00,018.7,018.9,000.0,027.0,020.8,012.5,0000.0,0005.56,0001.93,0001.22
2024-04-08 10:18:00,SystemResetWarning,0823.6,5.00,000.00,018.7,018.7,000.0,027.0,020.7,012.4,0000.0,0004.95,0001.91,0001.22
2024-04-08 10:19:00,SystemResetWarning,0823.5,5.01,000.00,018.7,018.6,000.0,027.0,020.6,012.3,0000.0,0003.59,0001.87,0001.22
2024-04-08 10:20:00,SystemResetWarning,0823.5,5.00,000.00,018.7,018.5,000.0,027.0,020.5,012.2,0000.0,0003.44,0001.84,0001.20
2024-04-08 10:21:00,SystemResetWarning,0823.5,4.99,000.00,018.7,018.3,000.0,027.1,020.5,011.9,0000.0,0003.45,0001.88,0001.21
2024-04-08 10:22:00,SystemResetWarning,0823.5,5.00,000.00,018.7,018.2,000.0,027.1,020.4,011.9,0000.0,0003.50,0001.90,0001.22
2024-04-08 10:23:00,SystemResetWarning,0823.5,5.00,000.00,018.7,018.2,000.0,027.1,020.4,011.9,0000.0,0003.52,0001.89,0001.22
2024-04-08 10:24:00,SystemResetWarning,0823.4,5.00,000.00,018.6,018.1,000.0,027.1,020.4,012.0,0000.0,0003.59,0001.90,0001.21
2024-04-08 10:25:00,SystemResetWarning,0823.4,4.99,000.00,018.6,018.0,000.0,027.1,020.3,012.0,0000.0,0003.57,0001.90,0001.21
2024-04-08 10:26:00,SystemResetWarning,0823.4,4.99,000.00,018.6,018.0,000.0,027.1,020.3,012.1,0000.0,0003.43,0001.91,0001.19
2024-04-08 10:27:00,SystemResetWarning,0823.4,5.00,000.00,018.6,017.9,000.0,027.1,020.3,012.2,0000.0,0003.32,0001.87,0001.17
2024-04-08 10:28:00,SystemResetWarning,0823.5,5.00,000.00,018.6,017.9,000.0,027.1,020.3,012.3,0000.0,0003.18,0001.79,0001.13
2024-04-08 10:29:00,SystemResetWarning,0823.5,5.00,000.00,018.6,017.9,000.0,027.1,020.3,012.4,0000.0,0003.33,0001.77,0001.11
2024-04-08 10:30:00,SystemResetWarning,0823.5,5.00,000.00,018.5,017.9,000.0,027.1,020.2,012.3,0000.0,0003.34,0001.78,0001.10
2024-04-08 10:31:00,SystemResetWarning,0823.5,5.00,000.00,018.5,017.9,000.0,027.1,020.2,012.0,0000.0,0003.30,0001.79,0001.11
2024-04-08 10:32:00,SystemResetWarning,0823.5,5.01,000.00,018.5,017.8,000.0,027.1,020.2,011.7,0000.0,0003.49,0001.83,0001.11
2024-04-08 10:33:00,SystemResetWarning,0823.5,5.00,000.00,018.5,017.8,000.0,027.1,020.2,011.6,0000.0,0003.63,0001.82,0001.11
2024-04-08 10:34:00,SystemResetWarning,0823.5,4.99,000.00,018.5,017.8,000.0,027.1,020.2,011.6,0000.0,0003.70,0001.84,0001.11
2024-04-08 10:35:00,SystemResetWarning,0823.5,4.99,000.00,018.5,017.8,000.0,027.1,020.2,011.7,0000.0,0003.66,0001.82,0001.11
2024-04-08 10:36:00,SystemResetWarning,0823.5,5.01,000.00,018.5,017.8,000.0,027.0,020.2,011.5,0000.0,0003.61,0001.82,0001.11
2024-04-08 10:37:00,SystemResetWarning,0823.4,5.01,000.00,018.5,017.8,000.0,027.0,020.2,011.6,0000.0,0003.50,0001.78,0001.12
2024-04-08 10:38:00,SystemResetWarning,0823.4,5.01,000.00,018.5,017.8,000.0,027.0,020.2,011.7,0000.0,0003.63,0001.80,0001.13
2024-04-08 10:39:00,SystemResetWarning,0823.4,5.00,000.00,018.4,017.7,000.0,027.0,020.1,011.4,0000.0,0004.03,0001.90,0001.16
2024-04-08 10:40:00,SystemResetWarning,0823.4,4.99,000.00,018.4,017.7,000.0,027.0,020.1,011.3,0000.0,0004.64,0001.93,0001.18
2024-04-08 10:41:00,SystemResetWarning,0823.5,4.99,000.00,018.4,017.7,000.0,027.0,020.1,011.2,0000.0,0004.60,0001.94,0001.20
2024-04-08 10:42:00,SystemResetWarning,0823.4,4.99,000.00,018.4,017.7,000.0,027.0,020.1,011.1,0000.0,0004.62,0001.94,0001.21
2024-04-08 10:43:00,SystemResetWarning,0823.4,4.99,000.00,018.4,017.7,000.0,027.0,020.1,011.0,0000.0,0004.42,0001.88,0001.22
2024-04-08 10:44:00,SystemResetWarning,0823.4,5.00,000.00,018.4,017.7,000.0,027.0,020.1,011.0,0000.0,0004.22,0001.86,0001.24
2024-04-08 10:45:00,SystemResetWarning,0823.4,5.01,000.00,018.4,017.7,000.0,027.0,020.1,011.1,0000.0,0004.24,0001.95,0001.27
2024-04-08 10:46:00,SystemResetWarning,0823.5,5.02,000.00,018.4,017.7,000.0,027.0,020.1,011.3,0000.0,0004.22,0001.95,0001.28
2024-04-08 10:47:00,SystemResetWarning,0823.4,5.00,000.00,018.4,017.7,000.0,027.0,020.1,011.7,0000.0,0004.22,0001.96,0001.29
2024-04-08 10:48:00,SystemResetWarning,0823.5,4.99,000.00,018.4,017.7,000.0,027.0,020.0,011.5,0000.0,0004.38,0002.02,0001.31
2024-04-08 10:49:00,SystemResetWarning,0823.5,5.00,000.00,018.4,017.7,000.0,027.0,020.0,011.2,0000.0,0004.45,0002.07,0001.32
2024-04-08 10:50:00,SystemResetWarning,0823.5,5.00,000.00,018.3,017.7,000.0,027.0,020.0,011.3,0000.0,0004.29,0002.04,0001.33
2024-04-08 10:51:00,SystemResetWarning,0823.5,5.01,000.00,018.3,017.7,000.0,027.0,020.0,011.3,0000.0,0003.47,0002.05,0001.35
2024-04-08 10:52:00,SystemResetWarning,0823.5,4.99,000.00,018.3,017.6,000.0,026.9,020.0,011.3,0000.0,0003.52,0002.07,0001.36
2024-04-08 10:53:00,SystemResetWarning,0823.5,4.99,000.00,018.3,017.6,000.0,026.9,020.0,011.3,0000.0,0003.49,0002.09,0001.37
2024-04-08 10:54:00,SystemResetWarning,0823.5,5.00,000.00,018.3,017.6,000.0,026.9,020.0,011.4,0000.0,0003.61,0002.15,0001.38
2024-04-08 10:55:00,SystemResetWarning,0823.6,5.01,000.00,018.3,017.6,000.0,026.9,020.0,011.6,0000.0,0003.62,0002.16,0001.37
2024-04-08 10:56:00,SystemResetWarning,0823.6,5.01,000.00,018.3,017.6,000.0,026.9,020.0,011.8,0000.0,0003.61,0002.12,0001.37
2024-04-08 10:57:00,SystemResetWarning,0823.6,5.00,000.00,018.3,017.6,000.0,026.9,020.0,012.0,0000.0,0003.80,0002.16,0001.37
2024-04-08 10:58:00,SystemResetWarning,0823.6,5.00,000.00,018.3,017.5,000.0,026.9,020.0,012.5,0000.0,0004.44,0002.20,0001.37
2024-04-08 10:59:00,SystemResetWarning,0823.6,5.00,000.00,018.3,017.5,000.0,026.9,020.0,012.7,0000.0,0005.27,0002.21,0001.37
